Wetbulb
37.16 33.25 29.74 32.77 34.19 34.83 33.80 31.97 31.22 34.63 38.21 36.24 35.45 36.71 39.24 41.97 41.95 41.73 43.04 44.34 45.31 46.49 48.78 50.37 50.33 50.34 50.82 54.34 54.79 55.70 60.53 64.28 66.37 65.29 64.38 64.91 64.89 66.00 66.60 67.15 67.30 67.13 66.84 66.68
33.52 29.71 35.85 37.56 36.76 35.22 33.62 31.09 30.52 35.11 38.66 37.08 35.45 36.16 39.67 41.17 40.80 41.38 42.30 43.05 44.11 45.96 46.78 48.83 48.82 49.03 48.42 48.97 51.25 53.68 55.40 59.16 64.70 66.94 66.92 66.76 66.64 67.10 67.64 67.99 67.62 67.74 67.57 67.33
30.91 34.66 39.02 36.91 34.70 34.59 32.81 31.52 31.11 32.48 36.26 36.94 34.52 31.85 34.27 38.26 39.83 41.53 41.82 42.60 43.28 43.61 45.27 46.07 48.33 48.69 47.58 47.18 48.09 52.04 54.02 55.87 60.16 65.77 64.93 64.16 64.80 64.76 64.75 65.44 67.00 67.85 68.08 68.18
32.77 36.51 36.59 33.95 34.03 35.49 29.44 36.55 36.15 34.50 30.98 24.79 34.54 23.42 31.73 36.10 37.56 38.75 39.78 39.85 40.27 41.25 46.25 48.32 49.41 50.13 50.32 49.71 48.83 48.35 52.65 54.90 57.39 62.27 64.85 65.25 65.83 65.48 66.11 65.48 66.93 66.28 67.98 68.42
33.38 33.06 33.45 32.19 34.54 37.81 33.01 37.39 34.91 33.74 29.80 27.40 29.29 24.41 28.83 34.69 33.76 36.18 38.05 39.05 40.94 44.63 45.75 46.90 48.21 49.42 50.66 50.82 50.41 49.06 48.91 54.28 56.99 59.41 65.38 65.35 65.17 66.43 65.69 63.86 64.39 64.95 65.58 67.53
34.66 37.47 36.03 35.43 38.25 38.55 38.44 33.50 31.36 29.05 26.48 20.22 26.66 26.30 25.42 29.93 33.44 36.08 38.62 40.64 44.21 45.05 45.80 46.30 47.62 48.39 48.54 49.90 50.50 51.15 49.91 48.69 55.89 58.92 63.68 65.56 65.44 64.86 62.13 62.95 63.50 64.20 65.43 67.00
33.24 33.46 36.18 39.95 34.02 35.13 32.57 26.28 19.86 18.10 18.61 19.49 28.32 25.72 29.12 34.60 38.65 38.28 38.63 42.04 44.20 44.46 43.94 44.71 45.23 46.13 47.48 48.16 49.59 51.20 52.08 50.80 52.40 57.81 60.91 65.56 66.25 65.99 63.18 64.02 62.94 64.15 65.07 66.25
27.62 26.30 33.67 38.39 34.18 31.00 29.53 27.92 19.92 15.53 18.05 19.81 28.31 22.97 27.66 36.43 38.94 41.55 44.21 43.67 43.97 43.45 42.25 43.97 46.14 46.85 47.57 48.71 49.75 51.09 51.43 51.64 51.65 54.00 59.12 62.96 65.72 66.18 64.64 63.98 63.54 64.30 65.62 66.70
25.39 29.22 38.22 39.05 38.07 35.84 29.32 24.94 28.62 22.70 22.49 19.24 23.01 28.02 34.37 37.98 38.26 41.36 41.60 42.53 41.86 41.72 43.55 44.97 46.28 47.29 47.89 48.65 49.37 51.14 51.85 52.09 53.22 52.24 57.74 60.70 63.67 64.96 64.42 63.15 64.59 64.85 66.33 67.00
31.59 26.40 35.16 37.26 37.24 36.13 32.80 33.68 23.88 19.88 13.72 11.58 20.85 24.10 26.33 32.84 36.03 37.85 39.80 39.97 41.17 42.68 43.69 44.52 45.95 47.20 48.76 49.65 50.37 51.52 52.35 51.73 52.61 54.78 56.23 60.10 62.37 63.84 62.96 63.23 64.37 65.35 66.42 67.47
32.73 29.33 30.17 34.04 31.31 29.12 28.23 25.99 28.45 24.79 21.86 17.22 19.14 22.75 32.62 33.06 35.23 36.28 38.37 40.04 40.76 41.92 42.98 44.90 45.61 49.76 49.50 50.35 50.62 51.41 52.66 52.96 53.20 55.85 55.97 59.61 61.42 62.05 61.92 63.29 64.75 65.82 66.49 67.32
33.81 29.33 26.34 29.43 35.17 35.97 32.02 29.31 28.38 21.03 22.47 25.23 23.85 25.01 37.16 37.74 38.12 38.90 39.67 41.51 41.60 43.14 44.59 45.64 47.45 50.76 49.93 50.68 51.37 51.83 53.38 54.80 54.07 55.14 56.63 59.72 60.92 61.86 62.58 63.76 65.18 66.29 66.40 67.67
34.91 28.80 23.87 25.25 27.72 32.25 29.95 31.82 31.11 31.12 29.53 25.45 23.46 24.88 37.52 38.14 38.70 40.13 39.73 41.86 42.99 44.62 45.73 47.04 49.29 48.43 47.28 47.66 49.60 51.11 54.32 59.41 57.78 55.98 58.07 59.60 61.29 62.64 63.05 63.98 65.41 66.37 66.87 67.36
40.35 31.10 28.29 23.28 25.97 27.29 27.96 32.11 33.20 32.80 27.56 26.38 27.05 28.95 33.75 36.33 37.28 39.01 40.77 42.86 43.92 45.90 47.86 48.16 47.04 47.23 47.36 47.13 49.11 51.56 54.64 59.74 58.37 57.25 59.02 60.80 62.24 63.37 64.05 65.06 65.64 66.44 67.07 67.09
34.01 27.70 30.49 32.35 33.53 33.82 32.69 32.58 33.40 31.59 32.08 28.95 30.50 30.42 34.01 36.56 37.69 40.27 42.39 44.40 44.37 44.49 47.03 47.95 46.49 47.02 46.48 46.69 48.96 50.14 56.74 60.71 59.53 58.67 59.93 61.57 63.59 64.71 65.66 65.75 66.08 66.64 66.93 67.16
36.44 28.50 30.51 29.98 33.70 33.01 30.33 32.62 33.35 33.72 33.66 33.22 33.55 32.47 39.80 40.74 40.71 41.29 41.28 42.24 42.77 44.77 45.53 46.15 46.84 47.14 46.72 47.66 47.94 50.01 57.01 59.95 64.38 62.43 61.73 64.11 64.97 65.75 66.18 66.31 66.73 66.78 66.78 66.44
30.78 28.98 29.06 24.72 30.33 30.48 27.06 31.40 32.63 33.17 34.71 34.22 29.84 34.91 37.80 38.88 40.07 39.75 40.59 42.48 42.95 44.16 44.46 44.85 45.83 46.74 47.56 48.27 48.78 49.19 57.79 61.45 64.77 64.27 64.61 65.06 65.42 65.37 65.75 66.13 66.22 65.85 65.43 65.08
30.08 31.21 31.30 27.32 29.37 21.84 30.75 35.84 37.91 35.83 36.63 36.54 36.38 37.72 39.14 39.85 41.30 41.15 43.27 42.89 43.05 43.98 44.74 44.96 45.49 46.09 46.94 47.75 49.68 51.69 57.20 59.92 64.31 64.61 64.61 65.13 65.24 64.52 65.27 65.61 65.04 64.95 63.81 63.69
35.15 33.15 30.58 27.23 24.30 27.11 31.69 34.66 35.32 33.15 33.15 38.78 37.13 38.62 40.42 40.66 40.70 41.27 44.81 44.29 44.29 44.93 45.46 45.44 46.33 46.86 47.01 47.48 48.95 50.52 56.40 58.90 62.82 64.23 64.32 64.82 64.80 64.07 64.43 64.13 62.84 62.55 62.02 62.36
36.17 35.73 31.68 29.80 23.29 17.15 28.11 37.35 40.29 37.21 29.43 38.34 38.85 38.53 38.67 40.08 35.94 39.28 44.30 45.53 45.46 45.94 45.87 45.71 46.54 46.77 46.40 47.55 48.94 49.81 55.94 58.68 58.74 63.50 63.78 63.94 63.63 63.39 62.91 62.34 61.54 61.66 61.94 60.65
31.73 31.87 28.64 28.68 26.58 28.61 35.63 39.79 40.99 28.50 29.07 37.72 39.68 39.73 39.41 38.63 40.98 43.45 44.70 44.37 45.18 45.48 45.50 46.90 46.41 45.29 46.33 47.88 48.94 51.91 57.80 57.80 59.25 62.73 64.07 63.43 63.19 62.26 61.49 61.20 60.99 60.65 59.98 58.96
30.95 29.96 27.43 29.80 27.12 22.94 41.33 39.87 33.22 35.29 39.18 40.15 41.24 41.81 42.06 43.16 43.07 43.48 43.80 43.84 44.30 44.61 45.03 45.94 44.77 44.99 46.55 48.08 49.17 52.55 55.83 59.49 60.28 60.69 61.65 63.07 62.21 61.78 61.62 60.82 60.32 59.59 58.49 56.83
25.55 29.78 26.23 31.05 28.01 37.56 40.58 39.62 40.76 39.92 39.34 41.91 42.11 44.05 44.26 42.59 42.57 43.18 43.24 43.71 43.67 43.64 44.26 44.71 43.96 44.27 45.46 48.27 49.84 53.24 56.92 59.27 59.97 60.33 61.96 61.20 61.53 61.28 61.19 60.58 59.59 58.71 58.02 56.66
32.57 35.12 30.70 30.48 34.98 35.70 37.52 40.73 42.28 43.43 43.00 43.04 44.36 44.28 43.66 42.16 42.94 43.43 43.20 43.57 43.63 44.28 45.38 45.95 44.03 43.45 44.38 48.16 50.18 55.25 59.25 59.43 58.98 57.84 59.03 60.98 60.15 59.76 60.50 60.51 60.21 59.27 58.59 58.18
34.45 33.45 31.97 31.71 34.63 37.07 39.18 41.49 42.83 42.00 42.95 44.55 43.93 43.67 42.65 42.60 42.46 42.56 42.82 43.10 43.37 44.99 45.48 45.53 44.24 43.75 45.04 48.27 50.16 56.31 59.67 59.48 58.95 57.46 60.46 60.10 59.85 59.43 54.55 49.79 55.09 59.78 58.92 58.56
34.76 33.34 32.51 32.39 37.61 37.54 38.30 41.38 43.56 42.57 43.36 42.48 42.28 42.01 41.32 40.89 39.36 40.15 40.22 42.51 43.79 44.32 43.92 43.52 43.95 44.45 45.79 48.86 52.60 55.37 59.48 58.48 58.28 60.22 59.77 59.70 58.90 57.14 55.27 54.55 51.66 40.75 42.56 44.80
MSLP
1011.19 1011.82 1012.34 1012.49 1012.53 1012.54 1012.68 1012.67 1012.37 1011.60 1010.86 1010.66 1010.04 1009.06 1008.64 1008.01 1007.87 1007.40 1006.69 1006.43 1006.08 1005.66 1005.18 1004.82 1004.80 1004.71 1004.64 1004.26 1003.94 1003.58 1003.28 1003.42 1004.03 1003.77 1004.05 1004.51 1004.81 1004.80 1005.45 1005.10 1005.13 1005.71 1005.83 1006.33
1011.85 1012.01 1011.77 1011.88 1011.96 1012.23 1012.48 1012.52 1012.39 1011.85 1011.20 1010.90 1010.18 1008.39 1007.86 1007.58 1006.91 1006.66 1006.46 1006.25 1005.85 1005.63 1005.39 1005.37 1005.24 1005.29 1005.16 1005.02 1004.33 1004.02 1003.28 1002.93 1003.18 1003.03 1003.06 1002.99 1003.46 1003.82 1004.13 1004.39 1004.70 1004.87 1005.23 1005.87
1011.76 1011.46 1011.31 1011.49 1011.48 1011.84 1012.11 1012.27 1012.31 1012.38 1011.83 1011.45 1010.88 1009.09 1007.79 1006.93 1006.38 1006.19 1006.00 1005.80 1005.79 1005.91 1006.22 1005.98 1005.60 1005.49 1005.08 1005.03 1004.72 1004.20 1003.17 1002.53 1002.73 1002.48 1002.86 1003.23 1003.13 1003.14 1003.66 1003.89 1003.99 1004.05 1004.26 1005.09
1011.42 1010.94 1010.99 1011.05 1011.27 1011.59 1011.90 1011.83 1012.21 1012.45 1012.62 1012.60 1011.66 1010.41 1009.05 1007.60 1007.04 1006.53 1006.07 1006.04 1005.97 1005.68 1005.62 1006.14 1005.73 1005.11 1005.08 1004.63 1004.08 1003.93 1003.13 1002.27 1001.97 1002.00 1002.37 1002.64 1002.53 1002.13 1002.04 1002.63 1002.69 1003.42 1003.76 1004.39
1011.10 1010.96 1010.92 1010.98 1010.99 1011.34 1011.68 1011.84 1012.38 1012.66 1013.01 1013.05 1012.55 1011.75 1008.87 1007.82 1007.70 1007.47 1007.08 1006.74 1006.51 1006.10 1005.65 1005.58 1005.05 1005.25 1005.01 1004.95 1004.71 1003.68 1002.85 1002.11 1001.51 1001.44 1001.58 1001.77 1001.75 1001.41 1001.07 1001.58 1002.27 1002.99 1003.04 1003.41
1011.22 1010.80 1010.74 1010.59 1010.65 1011.24 1011.72 1012.32 1012.92 1013.57 1014.06 1013.94 1012.74 1012.22 1008.70 1007.81 1007.59 1007.30 1006.52 1006.33 1006.44 1006.48 1006.11 1005.59 1005.14 1004.68 1004.23 1003.99 1003.84 1003.43 1002.46 1001.57 1001.39 1000.86 1000.95 1000.84 1001.01 1001.01 1001.07 1001.05 1001.70 1002.34 1002.73 1003.21
1011.49 1011.09 1010.70 1010.62 1011.03 1011.65 1012.45 1013.53 1014.72 1015.01 1015.31 1014.50 1013.19 1012.21 1009.00 1007.91 1007.03 1006.91 1006.58 1006.38 1006.09 1005.88 1005.65 1005.44 1005.01 1004.37 1003.92 1003.36 1002.93 1002.42 1001.91 1001.21 1000.79 1000.48 1000.24 1000.02 1000.14 1000.10 1000.16 1000.01 1000.32 1001.53 1001.99 1002.55
1012.28 1011.89 1011.20 1011.07 1011.35 1012.02 1012.86 1014.16 1015.81 1016.00 1015.96 1014.86 1013.88 1011.33 1008.34 1007.33 1006.75 1006.53 1006.68 1006.71 1006.34 1006.04 1006.05 1005.70 1004.96 1004.54 1003.98 1003.11 1002.66 1001.88 1001.21 1000.44 999.98 999.53 999.31 999.04 999.26 999.27 999.38 999.32 999.60 1000.16 1000.82 1001.53
1012.93 1012.48 1011.62 1011.26 1011.54 1012.16 1013.06 1014.32 1015.05 1016.00 1016.14 1015.56 1013.41 1010.80 1008.29 1006.83 1006.49 1006.66 1006.63 1006.63 1006.42 1006.32 1006.15 1005.71 1005.04 1004.10 1003.21 1002.59 1001.90 1001.35 1000.67 999.70 999.27 998.76 998.38 998.07 998.10 998.25 998.34 998.49 998.69 999.21 1000.09 1000.92
1012.93 1013.08 1012.39 1011.96 1011.78 1012.08 1012.72 1013.82 1015.37 1016.80 1016.95 1015.74 1012.71 1010.98 1008.63 1007.31 1006.90 1006.92 1006.92 1006.59 1006.44 1006.30 1005.97 1005.27 1004.53 1003.75 1002.64 1001.56 1000.99 1000.37 999.75 998.75 997.95 997.23 997.01 996.92 996.91 997.11 997.48 998.19 998.27 998.63 999.55 1000.35
1013.22 1013.85 1013.39 1012.84 1012.45 1012.52 1013.30 1013.99 1015.16 1016.17 1016.24 1015.28 1013.02 1009.21 1007.35 1007.14 1006.90 1006.86 1006.94 1006.81 1006.40 1005.90 1005.56 1005.06 1003.92 1002.80 1002.02 1000.87 999.92 999.16 998.51 997.58 996.60 996.14 995.44 995.60 995.89 996.28 996.87 997.42 997.68 998.04 998.85 999.78
1013.44 1014.14 1014.24 1013.39 1012.25 1012.45 1012.96 1013.78 1014.61 1015.45 1015.18 1014.43 1013.16 1007.55 1006.95 1006.69 1006.49 1006.75 1006.32 1006.19 1005.83 1005.45 1005.21 1004.60 1003.35 1002.62 1001.81 1000.55 999.40 998.29 997.18 996.17 995.17 994.70 994.46 994.41 994.93 995.41 996.03 996.65 997.09 997.51 998.46 999.53
1013.50 1014.17 1014.58 1013.59 1013.14 1012.77 1012.90 1013.35 1013.58 1013.93 1014.20 1013.07 1012.34 1007.57 1006.29 1006.35 1006.60 1006.42 1005.93 1005.42 1005.05 1004.90 1004.66 1003.64 1002.91 1003.07 1002.00 1000.56 999.32 997.84 996.35 994.46 993.53 993.20 993.33 993.81 994.35 994.96 995.38 995.86 996.59 997.36 998.37 998.94
1013.31 1013.71 1014.00 1013.58 1012.81 1012.75 1012.62 1012.27 1012.57 1012.89 1012.53 1011.38 1009.37 1007.55 1006.47 1006.52 1006.30 1006.03 1005.36 1004.88 1004.60 1003.97 1003.32 1002.85 1002.21 1002.03 1001.16 1000.05 998.50 996.62 994.83 993.21 992.16 992.11 992.37 992.87 993.35 993.94 994.41 995.34 996.28 997.13 997.65 998.34
1013.23 1013.31 1013.39 1012.74 1012.41 1012.17 1011.63 1011.06 1010.84 1011.22 1010.41 1010.29 1007.02 1007.63 1006.06 1005.89 1005.78 1005.40 1005.04 1004.63 1003.95 1003.25 1002.83 1002.70 1002.50 1001.78 1000.91 999.14 997.81 996.17 994.35 992.25 990.98 991.05 991.29 991.84 992.48 993.37 994.12 995.26 995.99 996.48 997.17 998.10
1013.11 1013.13 1012.94 1012.47 1012.03 1011.54 1010.53 1009.51 1009.11 1008.90 1008.55 1008.15 1007.13 1006.45 1005.21 1005.11 1005.16 1004.92 1004.43 1003.95 1003.31 1002.78 1002.59 1002.07 1001.47 1000.56 999.73 999.33 998.26 996.81 994.11 991.76 990.38 989.77 990.38 991.14 992.20 992.95 993.80 994.77 995.23 996.19 997.16 997.97
1013.17 1013.14 1013.04 1011.97 1011.44 1010.79 1009.42 1007.42 1007.02 1006.87 1006.49 1006.43 1006.23 1004.94 1004.85 1004.66 1004.53 1004.23 1003.88 1003.40 1002.96 1002.43 1001.99 1001.42 1001.10 999.97 999.61 999.27 997.79 995.58 992.93 990.33 989.67 989.54 990.36 990.67 991.74 992.74 993.37 994.15 995.07 996.09 997.05 998.11
1012.38 1012.81 1012.98 1011.86 1011.55 1009.98 1007.13 1006.34 1006.13 1006.05 1005.60 1005.57 1005.35 1004.76 1004.52 1004.25 1003.89 1003.71 1003.46 1002.86 1002.19 1002.03 1001.88 1001.31 1000.33 999.70 998.52 997.09 997.71 996.33 992.08 990.64 989.87 989.99 990.68 990.55 991.40 992.22 993.16 994.15 995.17 996.23 997.24 998.22
1011.20 1012.04 1011.94 1011.38 1010.72 1008.77 1006.69 1005.89 1005.82 1005.84 1004.77 1004.94 1005.00 1004.66 1004.37 1004.14 1003.89 1003.16 1002.60 1002.17 1001.90 1001.37 1001.06 1000.82 999.63 998.78 997.95 996.30 994.63 993.97 992.60 991.51 990.57 990.15 990.64 991.08 991.60 992.36 993.28 994.40 995.56 996.54 997.39 998.34
1010.78 1011.48 1011.72 1010.95 1010.28 1008.92 1006.97 1005.96 1005.88 1005.97 1005.23 1004.54 1004.84 1004.97 1004.67 1004.38 1003.53 1002.28 1001.86 1001.65 1001.23 1001.18 1000.82 999.92 999.10 998.77 998.22 996.85 995.69 994.03 992.74 992.05 991.17 990.60 991.13 991.73 992.50 992.80 993.72 994.71 995.73 996.61 997.54 998.59
1010.99 1011.29 1011.14 1010.69 1010.00 1008.35 1006.49 1006.12 1006.04 1006.12 1005.45 1004.81 1004.90 1004.88 1004.64 1004.23 1003.68 1002.32 1001.68 1001.30 1000.90 1000.71 1000.23 999.56 999.12 998.43 997.43 996.60 995.48 994.13 992.71 992.34 991.94 991.48 991.71 992.49 993.02 993.41 994.02 995.09 995.55 996.89 998.09 999.03
1010.73 1010.76 1010.66 1010.25 1009.42 1007.98 1006.27 1006.39 1006.38 1005.42 1004.72 1004.80 1004.35 1004.18 1003.67 1003.04 1002.53 1002.28 1001.34 1001.07 1000.78 1000.34 999.86 999.35 998.81 997.91 997.05 995.96 995.01 994.25 993.31 992.77 992.80 992.75 992.54 992.60 993.32 993.98 994.75 995.04 996.30 997.40 998.24 999.51
1010.55 1010.45 1010.58 1010.17 1008.07 1006.61 1006.21 1005.74 1005.21 1005.13 1004.74 1004.27 1003.66 1002.90 1002.76 1002.41 1001.81 1001.39 1000.54 1000.31 999.97 999.66 998.93 998.69 998.36 997.57 996.41 995.79 994.87 993.80 993.22 993.00 993.18 993.28 992.70 993.25 993.93 994.35 994.88 995.74 996.80 998.01 998.91 999.80
1010.52 1010.18 1010.07 1009.49 1007.11 1006.49 1005.87 1005.21 1004.72 1004.58 1003.95 1003.45 1003.05 1002.69 1002.29 1001.74 1001.50 1000.72 1000.09 999.58 999.22 998.82 998.18 998.29 998.03 997.52 996.75 995.71 994.64 993.72 993.09 993.16 993.42 993.61 993.54 994.09 994.76 995.03 995.73 996.54 997.49 998.47 999.39 1000.14
1010.64 1010.17 1009.33 1008.53 1007.34 1006.83 1005.68 1004.62 1004.07 1003.68 1003.31 1002.81 1002.40 1001.80 1001.55 1001.27 1000.63 1000.30 999.57 998.68 998.00 997.68 997.30 997.29 997.56 997.20 996.47 995.44 994.46 993.50 992.55 992.73 992.70 992.61 993.31 993.55 995.39 995.77 996.74 998.09 998.97 999.14 999.77 999.81
1010.11 1009.53 1009.33 1008.10 1007.03 1006.48 1005.02 1003.98 1003.40 1003.23 1002.74 1002.18 1001.67 1000.99 1000.27 1000.13 999.60 999.53 998.47 997.71 997.00 996.76 996.54 996.81 996.84 996.49 995.83 995.12 994.19 993.46 992.79 992.30 992.29 991.83 992.81 994.77 995.56 996.41 997.18 998.22 999.73 1000.23 1000.33 1000.31
Wind_Speed
3 5 3 5 5 5 3 3 5 5 5 5 8 16 10 7 7 9 8 7 7 6 5 4 5 7 7 8 9 11 4 7 4 4 5 4 8 8 8 10 12 11 9 10
6 3 5 4 5 4 4 3 5 5 6 7 9 23 18 13 9 9 7 7 8 3 4 4 7 6 7 7 10 10 9 5 7 6 5 5 7 7 8 6 7 10 10 11
5 5 2 3 2 3 3 4 3 6 3 6 7 10 5 6 2 3 6 7 7 5 1 5 5 6 7 9 8 10 10 9 6 8 2 1 2 3 3 4 5 11 12 11
5 3 3 3 2 4 3 4 4 5 4 3 4 8 3 8 9 4 8 9 8 8 7 3 8 6 7 8 9 9 10 10 9 7 7 11 11 11 9 5 6 5 10 10
7 2 4 2 5 5 8 3 3 3 3 2 3 4 6 5 4 8 9 8 6 9 8 10 11 9 11 7 8 10 9 10 10 8 10 10 12 11 6 4 7 7 7 9
7 2 3 6 2 3 3 4 5 4 3 3 6 5 1 2 6 6 7 8 7 7 8 9 10 10 11 10 10 9 10 9 10 10 12 15 16 13 6 6 6 5 4 4
4 2 1 2 2 3 6 7 6 6 2 6 1 4 9 11 17 6 8 8 9 8 9 11 14 15 14 15 16 12 11 13 10 11 12 14 18 16 15 11 8 7 4 3
2 5 3 0 3 4 4 7 6 6 4 6 3 10 9 6 9 7 6 7 8 9 6 11 16 16 16 17 18 17 13 16 12 10 14 13 17 12 11 11 7 7 7 7
3 5 4 3 4 7 2 4 5 2 2 2 6 9 13 16 12 5 7 8 9 7 8 14 16 18 18 17 17 18 16 19 15 14 13 15 14 15 12 11 11 9 7 7
3 4 4 5 1 2 5 5 0 4 3 6 5 7 12 12 15 5 10 10 9 6 10 14 19 18 18 20 16 17 17 19 17 17 14 13 14 14 12 10 11 11 9 10
5 3 4 3 4 7 1 1 3 3 5 5 5 8 6 6 9 9 9 9 10 8 9 16 19 19 17 18 16 17 19 18 16 15 17 14 13 13 10 11 10 10 9 11
3 4 4 10 8 4 5 6 6 5 5 5 3 17 4 14 13 7 11 13 8 8 7 16 19 19 19 18 16 19 19 17 15 15 16 15 11 11 13 11 10 10 11 11
5 2 3 6 3 4 3 5 5 3 1 9 8 14 4 4 7 14 16 12 10 6 8 14 15 18 18 19 20 20 20 17 13 14 13 11 12 13 14 11 10 11 12 11
6 7 8 10 7 4 8 14 10 8 6 9 19 27 22 18 17 12 12 11 10 10 8 10 12 18 18 20 22 23 23 20 14 15 14 14 14 14 12 12 12 13 12 13
6 8 9 13 13 11 15 18 18 16 20 15 26 19 21 19 17 9 7 8 12 14 11 12 13 15 19 22 24 25 23 20 10 14 14 15 14 12 13 13 13 12 12 11
4 5 4 5 7 12 20 22 20 20 20 19 25 25 21 19 5 7 8 11 12 11 11 12 16 20 19 23 25 26 23 17 8 11 12 13 13 13 15 15 14 13 12 12
5 3 3 10 7 7 11 18 13 7 6 6 7 16 5 6 7 6 10 14 12 9 13 15 15 17 12 19 26 25 19 12 5 9 11 14 15 15 15 14 13 13 13 13
7 6 4 5 2 6 7 3 5 9 9 7 9 12 10 7 4 7 10 13 11 9 10 14 15 15 18 20 16 18 15 14 1 9 9 11 14 15 13 13 12 12 12 13
15 8 3 4 4 8 8 3 1 4 7 3 10 11 6 5 6 12 12 7 7 12 10 14 17 16 20 22 20 16 13 8 4 7 7 8 11 13 13 13 13 11 12 11
7 10 3 2 3 5 7 1 3 2 10 2 4 7 6 5 14 14 13 13 15 13 9 15 17 17 17 18 16 14 13 7 9 3 7 7 9 13 14 13 13 9 11 10
5 4 9 7 5 7 6 2 1 2 6 5 2 6 8 12 13 19 15 14 12 8 11 13 14 14 17 15 13 12 10 3 4 9 7 7 8 12 12 11 12 10 11 10
1 1 3 3 5 7 4 1 5 5 10 10 14 18 16 16 16 13 14 12 10 10 12 11 12 14 16 15 12 12 7 3 1 3 1 8 8 9 10 14 11 11 12 11
2 5 3 7 7 6 4 8 13 8 12 10 14 17 17 17 17 15 16 13 9 10 12 7 11 15 17 14 12 13 8 1 3 2 3 9 8 10 11 13 12 10 10 10
4 1 4 5 6 10 10 11 11 12 15 19 15 16 16 18 14 15 14 12 10 13 12 11 12 14 15 13 15 13 7 3 4 5 8 5 8 10 10 8 9 9 9 9
6 3 5 7 10 12 15 14 13 20 17 16 15 15 11 11 15 18 17 17 16 16 10 10 11 13 15 15 14 12 5 4 2 3 11 9 8 10 10 8 4 8 5 9
3 6 3 5 16 18 18 18 17 16 16 15 14 15 22 22 21 21 21 19 17 10 11 11 13 11 14 13 11 10 4 4 7 11 12 11 9 8 9 9 8 18 11 11
Wind_Direction
11 74 197 225 212 214 231 202 220 257 266 343 292 288 284 264 265 274 267 269 280 279 266 275 297 308 317 311 320 313 266 233 203 180 170 189 213 219 222 216 213 201 185 186
24 224 221 228 227 198 208 245 260 283 297 313 293 290 287 262 233 223 249 271 270 251 254 293 322 320 311 296 299 300 298 251 216 206 222 193 188 215 230 221 200 186 186 186
160 226 201 213 268 210 217 227 244 242 280 271 302 290 297 330 265 235 262 254 269 279 334 295 307 308 308 303 284 277 282 281 233 217 133 73 96 117 144 208 200 206 191 178
224 248 225 342 267 147 281 216 246 281 0 294 61 279 221 232 251 303 279 289 294 297 317 229 297 299 292 292 298 272 272 274 274 226 203 214 224 217 212 206 212 187 173 185
247 227 232 264 234 169 233 353 285 277 280 348 289 295 259 143 209 287 295 263 271 295 294 302 313 302 300 285 274 287 266 263 264 254 225 224 233 232 218 157 156 183 186 186
239 249 202 218 178 188 345 5 354 47 72 329 242 197 240 178 124 262 264 287 280 281 293 300 297 301 300 300 290 277 279 259 254 247 236 231 233 227 202 166 175 182 164 164
333 257 311 138 68 23 70 50 339 337 10 232 193 291 247 288 303 248 258 275 291 299 307 309 315 318 312 308 307 299 284 277 254 234 237 224 229 226 213 206 172 163 148 171
195 311 196 352 165 203 231 150 165 252 222 268 306 258 257 240 251 231 241 277 286 300 304 313 315 309 303 303 300 296 283 281 274 246 238 228 228 224 219 206 179 171 173 189
172 258 291 239 200 139 198 167 193 244 204 355 221 290 297 270 256 280 265 254 277 291 305 318 321 310 301 294 290 283 279 278 270 253 237 233 225 222 212 204 185 171 168 163
216 289 242 283 11 236 163 167 164 9 293 264 259 250 244 288 289 248 287 295 296 293 310 318 318 300 286 285 282 272 271 270 266 261 233 225 220 216 202 185 180 171 164 158
158 160 280 338 215 205 139 285 90 145 161 218 296 252 217 239 261 268 268 273 278 279 308 314 324 317 297 288 281 276 276 269 264 251 238 222 209 197 185 188 182 171 150 160
188 155 246 236 247 211 167 200 166 163 237 224 229 267 257 269 280 293 287 296 259 257 299 331 338 320 320 309 296 297 286 267 253 247 226 215 198 175 177 177 171 154 164 170
184 215 304 308 23 6 176 193 191 182 246 233 260 267 15 312 302 302 300 287 267 256 287 337 343 313 316 315 306 303 289 288 257 228 199 186 180 178 177 164 162 159 163 159
177 192 193 234 234 177 269 267 246 220 246 277 243 275 280 286 292 298 295 297 278 258 283 315 325 305 317 318 315 310 303 292 243 203 185 182 176 178 167 162 160 167 158 154
181 240 212 246 254 259 265 270 268 251 255 248 277 271 278 281 287 272 283 290 304 313 312 320 318 307 313 327 318 314 300 294 212 191 178 180 171 167 151 159 159 149 148 154
179 258 192 255 234 256 268 266 258 254 258 253 259 268 269 275 255 257 283 306 306 306 319 330 319 312 327 320 313 296 289 291 191 163 168 156 153 153 154 158 149 144 146 146
181 194 302 273 238 272 272 252 240 214 205 211 245 253 262 253 259 277 299 300 293 308 326 332 312 303 293 287 294 294 285 313 161 127 150 143 146 149 149 142 140 144 148 146
205 196 194 257 254 238 239 284 229 240 252 242 271 278 267 256 270 288 283 285 279 315 323 317 296 307 293 273 240 262 325 337 98 121 140 133 140 137 133 136 141 144 148 150
211 211 235 238 210 298 293 278 186 204 280 257 267 287 279 320 307 286 281 266 289 313 315 308 305 307 303 307 318 320 321 327 10 111 117 130 132 133 138 144 143 144 134 135
173 202 210 214 247 242 243 259 131 168 289 323 202 267 284 330 304 304 305 299 293 300 304 311 307 306 300 305 306 314 324 326 12 41 123 129 145 141 143 141 140 128 132 131
139 168 220 241 257 275 264 176 79 206 257 353 237 238 259 287 278 293 293 291 284 289 303 300 298 300 299 303 308 314 329 313 22 49 118 132 142 139 132 136 123 124 124 117
313 253 208 211 229 268 177 87 187 237 303 309 306 300 286 287 284 275 275 278 267 287 292 290 298 301 303 307 313 315 302 231 196 355 74 129 132 133 139 128 121 118 115 113
302 178 218 198 232 270 229 246 280 276 271 280 298 291 284 291 292 286 285 277 264 275 291 294 302 306 308 306 305 307 322 69 77 31 46 111 140 148 132 130 120 116 118 123
301 212 237 345 251 263 283 280 289 295 290 297 290 282 286 284 280 280 279 271 272 285 286 293 293 300 302 302 303 303 295 151 69 59 89 118 136 126 120 113 122 127 128 132
262 298 256 256 279 310 276 273 274 285 290 291 287 280 271 281 284 284 277 276 280 277 269 276 290 290 290 293 295 306 339 84 14 254 132 124 155 119 94 67 75 127 109 147
213 233 270 275 291 284 279 287 302 296 292 282 278 282 283 280 287 285 277 268 267 265 277 284 274 267 277 289 287 301 282 6 322 120 127 158 135 127 122 119 85 45 59 88